Weather History for Millville, NJ

Change the Weather History Date:

Sunday, September 30, 2012

  Actual Average Record
Temperature  
Mean Temperature 59 °F -  
Max Temperature 70 °F 70 °F 90 °F (1986)
Min Temperature 48 °F 50 °F 37 °F (1951)
Degree Days  
Heating Degree Days 6    
Growing Degree Days 9 (Base 50)    
Moisture  
Dew Point 49 °F    
Average Humidity 73    
Maximum Humidity 97    
Minimum Humidity 38    
Precipitation  
Precipitation 0.00 in - - ()
Sea Level Pressure  
Sea Level Pressure 29.86 in    
Wind  
Wind Speed 4 mph (West)    
Max Wind Speed 16 mph    
Max Gust Speed 22 mph    
Visibility 9 miles    
Events Rain    
Averages and records for this station are not official NWS values.
T = Trace of Precipitation, MM = Missing Value Source: NWS Daily Summary

Daily Weather History Graph

Daily Weather History Graph

Search for Another Location

Airport:

Trip Planner

Search our weather history database for the weather conditions in past years. The results will help you decide how hot, cold, wet, or windy it might be!

Date:

Astronomy

Sep. 30, 2012 Rise Set
Actual Time 6:55 AM EDT 6:43 PM EDT
Civil Twilight 6:29 AM EDT 7:10 PM EDT
Nautical Twilight 5:57 AM EDT 7:41 PM EDT
Astronomical Twilight 5:26 AM EDT 8:12 PM EDT
Moon 6:46 PM EDT (9/30) 7:23 AM EDT (9/30)
Length of Visible Light 12h 41m
Length of Day
11h 47m
Full, 100% of the Moon is Illuminated
Sep 30
Full
Oct 8
Last Quarter
Oct 15
New
Oct 21
First Quarter
Oct 29
Full

Hourly Weather History & Observations

Time (EDT) Temp. Dew Point Humidity Pressure Visibility Wind Dir Wind Speed Gust Speed Precip Events Conditions
12:54 AM 51.1 °F 50.0 °F 96% 29.89 in 10.0 mi Calm Calm - N/A   Clear
1:54 AM 51.1 °F 50.0 °F 96% 29.88 in 8.0 mi Calm Calm - N/A   Overcast
2:54 AM 50.0 °F 48.9 °F 96% 29.87 in 8.0 mi Calm Calm - N/A   Clear
3:54 AM 51.1 °F 50.0 °F 96% 29.87 in 10.0 mi Calm Calm - N/A   Clear
4:54 AM 50.0 °F 48.9 °F 96% 29.87 in 10.0 mi Calm Calm - N/A   Clear
5:54 AM 51.1 °F 48.9 °F 92% 29.87 in 10.0 mi West 3.5 mph - N/A   Clear
6:54 AM 48.9 °F 48.0 °F 97% 29.88 in 9.0 mi West 5.8 mph - N/A   Clear
7:54 AM 51.1 °F 50.0 °F 96% 29.88 in 6.0 mi WSW 3.5 mph - N/A   Clear
8:54 AM 57.9 °F 52.0 °F 81% 29.88 in 10.0 mi West 3.5 mph - N/A   Clear
9:54 AM 63.0 °F 50.0 °F 63% 29.87 in 10.0 mi West 3.5 mph - N/A   Clear
10:54 AM 64.9 °F 46.9 °F 52% 29.86 in 10.0 mi WSW 5.8 mph - N/A   Clear
11:54 AM 68.0 °F 48.0 °F 49% 29.86 in 10.0 mi SW 8.1 mph - N/A   Scattered Clouds
12:54 PM 66.9 °F 46.9 °F 49% 29.85 in 10.0 mi West 8.1 mph - N/A   Partly Cloudy
1:54 PM 70.0 °F 48.0 °F 46% 29.83 in 10.0 mi SW 6.9 mph 21.9 mph N/A   Mostly Cloudy
2:54 PM 69.1 °F 45.0 °F 42% 29.82 in 10.0 mi WSW 11.5 mph - N/A   Mostly Cloudy
3:54 PM 70.0 °F 43.0 °F 38% 29.81 in 10.0 mi West 16.1 mph 21.9 mph N/A   Clear
4:54 PM 70.0 °F 45.0 °F 41% 29.81 in 10.0 mi West 10.4 mph - N/A   Clear
5:54 PM 66.9 °F 46.0 °F 47% 29.81 in 10.0 mi West 5.8 mph - N/A   Clear
6:54 PM 64.0 °F 45.0 °F 50% 29.84 in 10.0 mi NW 9.2 mph 18.4 mph N/A   Partly Cloudy
8:54 PM 57.9 °F 51.1 °F 78% 29.87 in 10.0 mi WNW 9.2 mph - 0.00 in Rain Light Rain
10:43 PM 55.4 °F 51.8 °F 88% 29.90 in 2.5 mi WSW 6.9 mph - 0.07 in Rain Rain
10:50 PM 55.4 °F 51.8 °F 88% 29.90 in 4.0 mi WSW 6.9 mph - 0.08 in Rain Rain
11:54 PM 55.0 °F 53.1 °F 93% 29.89 in 9.0 mi Calm Calm - 0.00 in   Overcast